Погода в Терском

Россия / Тамбовская область     52°46′52″N   40°38′31″E
темп.,
°C
ветер,
м/с
пор.,
м/с
влажн.,
%
обл.,
%
осадки,
мм/ч
давл.,
гПа
погр.,
м
17 апреля, сб
сб1700:00+12ю22677 0.0 101811
03:00+10с226776 0.0 101811
06:00+10в388873 0.0 1017156
09:00+13юв4671100 0.2 1017605
12:00+15ю3458100 0.1 1017991
15:00+13юз5568100 0.7 1017616
18:00+10ююз2387100 2.1 1018430
21:00+9з4685100 4.9 1018403
18 апреля, вс
вс1800:00+8юз2288100 0.1 101946
03:00+6ююв11934 0.1 101911
06:00+6ююв22935 0.0 101929
09:00+10ю22745 0.1 1019518
12:00+12ююз445368 0.4 10191543
15:00+12ююз3350100 0.4 10201319
18:00+11зюз2356100 0.0 1020410
21:00+10ю1157100 0.0 102115
19 апреля, пн
пн1900:00+9ююв1156100 0.0 102110
03:00+8ссв2264100 0.0 102014
06:00+8всв2476100 0.0 102098
09:00+10в6876100 0.6 1020500
12:00+12в7866100 1.9 10191010
15:00+10в7980100 4.4 1019831
18:00+8в81280100 1.1 1020830
21:00+7в81380100 1.2 1021681
20 апреля, вт
вт2000:00+6в71385100 0.3 1019574
03:00+7в81586100 0.9 1017677
06:00+7в81591100 0.8 1015731
09:00+7в91691100 1.1 1014744
12:00+7в101888100 0.3 1011817
15:00+7вюв122291100 5.9 1009862
18:00+9вюв142589100 5.6 10061276
21:00+10юв122389100 6.2 10041231
21 апреля, ср
ср2100:00+11ююв101785100 1.3 1004929
03:00+10ююв111885100 1.8 10031247
06:00+9ю91586100 2.3 10041322
09:00+9ю81487100 2.6 10071295
12:00+8юз71174100 0.1 10121167
15:00+10юз7106874 0.1 10141081
18:00+10ю596687 0.0 1015629
21:00+8ююв51182100 0.1 1017308